Location: ?????????
(54.7630°N, 39.4991°E)
Time: 22:35:53
(UTC+00:00)

Lacrosse 5 rocket - Pass Details

Date: 14 April 2026
Orbit: 390 x 472 km, 57.0° (Epoch: 13 May)

Event Time Altitude Azimuth Distance (km) Brightness Sun altitude
Rises 17:55:16 0° 241° (WSW) 2,293 4.8 -12.5°
Reaches altitude 10° 17:57:20 10° 240° (WSW) 1,432 3.7 -12.7°
Maximum altitude 18:00:30 72° 156° (SSE) 416 0.5 -13.1°
Enters shadow 18:03:33 11° 71° (ENE) 1,384 3.1 -13.4°
